OK1FPA-13 Weather Reports


Display with metric or nautical units.
time (UTC)temp
F
wind
direction
speed
MPH
gust
MPH
rain 1hr
in
rain 24hr
in
rain mn
in
humidity
%
barometer
mb
20260504232436 59 0.0 0.0 0.00 0.00 0.00 56 1009.7
20260504231437 58 0.0 0.0 0.00 0.00 0.00 60 1009.8
20260504230436 58 0.0 0.0 0.00 0.00 0.00 59 1009.8
20260504225436 58 0.0 0.0 0.00 0.00 0.00 61 1009.9
20260504224436 58 0.0 0.0 0.00 0.00 0.00 60 1010.0
20260504223436 58 0.0 0.0 0.00 0.00 0.00 62 1010.1
20260504222437 58 0.0 0.0 0.00 0.00 0.00 64 1010.2
20260504221436 58 0.0 0.0 0.00 0.00 0.00 63 1010.2
20260504220436 59 0.0 0.0 0.00 0.00 0.00 62 1010.2
20260504215436 59 0.0 0.0 0.00 0.00 0.00 62 1010.3
20260504214437 59 0.0 0.0 0.00 0.00 0.00 62 1010.4
20260504213436 59 0.0 0.0 0.00 0.00 0.00 64 1010.5
20260504212436 60 0.0 0.0 0.00 0.00 0.00 63 1010.5
20260504211437 61 0.0 0.0 0.00 0.00 0.00 60 1010.6
20260504210436 61 0.0 0.0 0.00 0.00 0.00 60 1010.6
20260504205436 61 0.0 0.0 0.00 0.00 0.00 60 1010.5
20260504204436 62 0.0 0.0 0.00 0.00 0.00 60 1010.6
20260504203436 61 0.0 0.0 0.00 0.00 0.00 60 1010.6
20260504201437 62 0.0 0.0 0.00 0.00 0.00 56 1010.5
20260504200437 63 0.0 0.0 0.00 0.00 0.00 56 1010.6
20260504195437 65 0.0 0.0 0.00 0.00 0.00 53 1010.4
20260504194436 65 0.0 0.0 0.00 0.00 0.00 53 1010.5
20260504193436 65 0.0 0.0 0.00 0.00 0.00 52 1010.4
20260504191438 67 0.0 0.0 0.00 0.00 0.00 48 1010.5
20260504185437 67 0.0 0.0 0.00 0.00 0.00 48 1010.4
20260504184442 68 0.0 0.0 0.00 0.00 0.00 46 1010.2
20260504183437 68 0.0 0.0 0.00 0.00 0.00 44 1010.1
20260504182436 68 0.0 0.0 0.00 0.00 0.00 43 1010.1
20260504181437 69 0.0 0.0 0.00 0.00 0.00 43 1010.2
20260504180437 70 0.0 0.0 0.00 0.00 0.00 42 1010.1
20260504175437 70 0.0 0.0 0.00 0.00 0.00 41 1010.1
20260504174436 71 0.0 0.0 0.00 0.00 0.00 41 1010.0
20260504173436 71 0.0 0.0 0.00 0.00 0.00 41 1010.0
20260504172437 72 0.0 0.0 0.00 0.00 0.00 40 1010.0
20260504171437 72 0.0 0.0 0.00 0.00 0.00 40 1010.0
20260504170437 73 0.0 0.0 0.00 0.00 0.00 39 1010.0
20260504160436 78 0.0 0.0 0.00 0.00 0.00 33 1010.2
20260504150437 80 0.0 0.0 0.00 0.00 0.00 31 1010.4
20260504140438 78 0.0 0.0 0.00 0.00 0.00 31 1010.8
20260504130435 78 0.0 0.0 0.00 0.00 0.00 33 1011.4
20260504110435 74 0.0 0.0 0.00 0.00 0.00 36 1012.5
20260504100435 71 0.0 0.0 0.00 0.00 0.00 38 1013.1
20260504081435 67 0.0 0.0 0.00 0.00 0.00 42 1013.5
20260504080435 66 0.0 0.0 0.00 0.00 0.00 42 1013.3
20260504050435 57 0.0 0.0 0.00 0.00 0.00 52 1013.1
20260504045435 57 0.0 0.0 0.00 0.00 0.00 51 1013.2
20260504044435 56 0.0 0.0 0.00 0.00 0.00 51 1013.1
20260504043435 55 0.0 0.0 0.00 0.00 0.00 50 1013.1
20260504042435 55 0.0 0.0 0.00 0.00 0.00 51 1013.0
20260504041435 54 0.0 0.0 0.00 0.00 0.00 50 1013.0
20260504040435 54 0.0 0.0 0.00 0.00 0.00 51 1013.0
20260504035435 54 0.0 0.0 0.00 0.00 0.00 50 1013.0
20260504034435 54 0.0 0.0 0.00 0.00 0.00 50 1012.8
20260504033435 54 0.0 0.0 0.00 0.00 0.00 49 1012.7
20260504032435 54 0.0 0.0 0.00 0.00 0.00 48 1012.8
20260504031435 54 0.0 0.0 0.00 0.00 0.00 49 1012.8
20260504030436 54 0.0 0.0 0.00 0.00 0.00 49 1012.7
20260504025435 54 0.0 0.0 0.00 0.00 0.00 48 1012.6
20260504024435 54 0.0 0.0 0.00 0.00 0.00 48 1012.6
20260504023435 55 0.0 0.0 0.00 0.00 0.00 47 1012.4
20260504022435 55 0.0 0.0 0.00 0.00 0.00 47 1012.4
20260504021435 55 0.0 0.0 0.00 0.00 0.00 47 1012.3
20260504020435 55 0.0 0.0 0.00 0.00 0.00 46 1012.5
20260504015435 55 0.0 0.0 0.00 0.00 0.00 46 1012.5
20260504014435 55 0.0 0.0 0.00 0.00 0.00 46 1012.5
20260504013435 56 0.0 0.0 0.00 0.00 0.00 46 1012.4
20260504012437 55 0.0 0.0 0.00 0.00 0.00 46 1012.3
20260504011433 55 0.0 0.0 0.00 0.00 0.00 46 1012.3
20260504010434 55 0.0 0.0 0.00 0.00 0.00 47 1012.4
20260504005434 55 0.0 0.0 0.00 0.00 0.00 47 1012.3
20260504004434 55 0.0 0.0 0.00 0.00 0.00 47 1012.3
20260504003434 55 0.0 0.0 0.00 0.00 0.00 47 1012.3
20260504002434 55 0.0 0.0 0.00 0.00 0.00 46 1012.3
20260504001434 55 0.0 0.0 0.00 0.00 0.00 46 1012.3
20260504000434 55 0.0 0.0 0.00 0.00 0.00 46 1012.3
20260503235434 56 0.0 0.0 0.00 0.00 0.00 45 1012.4
20260503234434 56 0.0 0.0 0.00 0.00 0.00 45 1012.4
20260503233434 56 0.0 0.0 0.00 0.00 0.00 45 1012.5